Showing default

QIANFAN-40, 62241

Orbit data source: Space-Track

QIANFAN-40, 62241 is a Chinese payload satellite in LEO that was launched on Thu, 05 Dec 2024 UTC via a CHANG ZHENG 6A launch vehicle from the Taiyaun Space Center, China (TSC). Payload-class satellites include a variety of spacecraft equipped with specific instruments for various scientific and technological missions. These include communications satellites like Starlink; space stations such as the ISS; scientific satellites like the Hubble; Earth observation satellites from companies like Planet Labs, Umbra, and HawkEye 360; GPS; miniature CubeSats for education and research; and military/defense satellites.

Loading next visibility...
Identifier
62241, 2024-232E
Orbit
LEO
Last TLE update
12 hours ago
Origin
Manufacturer
SECM
Mission
Operational Commercial Communications
Bus & Motor
QIANFAN, Unknown motor
Mass
267 kg wet, ~267 kg dry
Launch date (UTC)
2024-12-05 (7 months ago)
Launch vehicle
CHANG ZHENG 6A
Launch site
Taiyaun Space Center, China (TSC)
Object type
Payload
Rocket body
Debris
Shape & HBR
Box + 1 Pan, 10 m
Radar Cross Section
13.200 m², Large (>1 m²)

Expand to show TLE details & history

TLE from 12 hours ago
0 QIANFAN-40
1 62241U 24232E   25181.88518436  .00000072  00000-0  93790-4 0  9999
2 62241  88.9983  57.4661 0012794 328.0313  32.0060 13.50955810 77332
Epoch: 2025-06-30T21:14Z
TLE epoch observation values (Epoch: 2025-06-30T21:14:39.928Z)
Latitude
-0.0001°
Longitude
179.61116°
Altitude
1,063.62 km
Speed
7.324 km/s
True Right ascension
03h 49m 51s
True Declination
0° 00' 00"
Sunlit
Object was in daylight at epoch
Visualization orbit readout
Latitude
9.85054°
Longitude
179.73158°
Altitude
1,064.028 km
Speed
7.324 km/s
Apparent Right ascension
05h 56m 26s
Apparent Declination
-16° 47' 00"
Sunlit
Object is in daylight
Visualization observer readout
Local Sidereal Time
21:22:28
Azimuth
77.882° E
Elevation
-39.965°
Doppler factor
1
Orbital elements
Apogee altitude
1,075.319 km
Perigee altitude
1,056.271 km
Semi-major axis
7,443.932 km
Eccentricity
0.00128
Inclination
88.9983°
RAAN
57.4661°
Arg. of periapsis
328.0313°
True anomaly
Unknown
Mean anomaly
32.006°
Eccentric anomaly
Unknown
Mean motion
3.3794 °/min
Orbital period
106.53 mins
BSTAR
0.00009379
Loading maneuver chart data...
Loading SW <> Apogee altitude chart data...
Loading historical data...
Loading historical data...
Loading historical data...
Loading historical data...
Loading historical data...
Loading historical data...
Loading historical data...

QIANFAN-40 Visibility forecast

Observer location: undefined°, undefined°

Span
Click to sort rows by Start time (UTC) header in descending order
Start Az.
Max El. time (UTC)
Max El. Az.
Max El.
End time (UTC)
End Az.
10 mins2025-07-01 15:08:08.532Z135.743° SSE2025-07-01 15:13:08.532Z82.517° E27.594°2025-07-01 15:18:08.532Z23.689° NE
10 mins2025-07-01 16:55:08.532Z214.106° SW2025-07-01 17:00:08.532Z284.625° WNW32.753°2025-07-01 17:05:08.532Z341.338° N
5 mins2025-07-02 02:20:08.532Z57.101° ENE2025-07-02 02:22:08.532Z76.865° E14.293°2025-07-02 02:25:08.532Z104.731° ESE
11 mins2025-07-02 04:04:08.532Z358.928° N2025-07-02 04:09:08.532Z298.096° NW44.799°2025-07-02 04:15:08.532Z185.987° SSW
|